TimeCST,TemperatureF,Dew PointF,Humidity,Sea Level PressureIn,VisibilityMPH,Wind Direction,Wind SpeedMPH,Gust SpeedMPH,PrecipitationIn,Events,Conditions,WindDirDegrees,DateUTC
12:52 AM,12.9,8.1,81,30.38,10.0,Calm,Calm,-,N/A,,Clear,0,2013-02-21 06:52:00
1:21 AM,14.0,10.4,86,30.35,10.0,WNW,4.6,-,N/A,,Mostly Cloudy,290,2013-02-21 07:21:00
1:52 AM,15.1,10.0,80,30.38,10.0,NW,4.6,-,N/A,,Overcast,310,2013-02-21 07:52:00
2:52 AM,16.0,10.0,77,30.36,10.0,WNW,3.5,-,N/A,,Overcast,300,2013-02-21 08:52:00
3:52 AM,17.1,10.9,77,30.38,10.0,NNW,5.8,-,N/A,,Overcast,340,2013-02-21 09:52:00
4:52 AM,18.0,12.0,78,30.38,7.0,North,5.8,-,0.00,Snow,Light Snow,360,2013-02-21 10:52:00
5:52 AM,19.9,15.1,81,30.38,10.0,NNE,3.5,-,0.00,,Overcast,30,2013-02-21 11:52:00
6:52 AM,21.0,16.0,81,30.37,9.0,North,3.5,-,0.00,,Overcast,360,2013-02-21 12:52:00
7:52 AM,21.9,18.0,85,30.39,7.0,North,5.8,-,0.00,Snow,Light Snow,360,2013-02-21 13:52:00
8:03 AM,21.2,17.6,86,30.34,6.0,North,8.1,-,0.00,Snow,Light Snow,10,2013-02-21 14:03:00
8:52 AM,24.1,19.0,81,30.34,10.0,NNE,9.2,-,0.00,,Overcast,20,2013-02-21 14:52:00
9:52 AM,26.1,21.0,81,30.37,10.0,NNE,5.8,-,0.00,,Overcast,30,2013-02-21 15:52:00
10:21 AM,26.6,21.2,80,30.32,10.0,NE,8.1,-,N/A,,Overcast,50,2013-02-21 16:21:00
10:31 AM,26.6,21.2,80,30.33,10.0,NE,8.1,-,N/A,,Overcast,50,2013-02-21 16:31:00
10:52 AM,28.0,21.9,78,30.35,10.0,NNE,11.5,-,N/A,,Overcast,30,2013-02-21 16:52:00
11:45 AM,28.4,21.2,74,30.28,10.0,NNE,10.4,-,N/A,,Overcast,30,2013-02-21 17:45:00
11:52 AM,28.0,23.0,81,30.31,10.0,NE,12.7,-,N/A,,Overcast,40,2013-02-21 17:52:00
12:52 PM,28.0,24.1,85,30.26,5.0,NE,11.5,-,0.00,Snow,Light Snow,40,2013-02-21 18:52:00
1:52 PM,28.9,24.1,82,30.22,10.0,NE,16.1,24.2,0.00,,Overcast,50,2013-02-21 19:52:00
2:52 PM,28.9,24.1,82,30.24,10.0,NE,10.4,-,N/A,,Overcast,50,2013-02-21 20:52:00
3:52 PM,28.0,24.1,85,30.22,10.0,East,15.0,-,0.00,,Overcast,80,2013-02-21 21:52:00
4:52 PM,27.0,21.9,81,30.20,10.0,East,17.3,-,N/A,,Overcast,80,2013-02-21 22:52:00
5:23 PM,26.6,19.4,74,30.15,10.0,East,16.1,-,N/A,,Overcast,80,2013-02-21 23:23:00
5:52 PM,26.1,19.9,78,30.18,10.0,East,17.3,-,N/A,,Overcast,80,2013-02-21 23:52:00
6:52 PM,26.1,19.9,78,30.15,10.0,East,16.1,23.0,N/A,,Overcast,80,2013-02-22 00:52:00
7:52 PM,27.0,19.9,75,30.12,10.0,East,15.0,24.2,N/A,,Overcast,100,2013-02-22 01:52:00
8:52 PM,27.0,19.9,75,30.06,10.0,East,16.1,21.9,N/A,,Overcast,100,2013-02-22 02:52:00
9:52 PM,27.0,19.9,75,30.04,10.0,East,15.0,26.5,N/A,,Overcast,90,2013-02-22 03:52:00
10:10 PM,26.6,19.4,74,30.00,10.0,East,19.6,26.5,N/A,,Overcast,80,2013-02-22 04:10:00
10:33 PM,26.6,21.2,80,30.00,1.8,East,18.4,23.0,0.00,Snow,Light Snow,90,2013-02-22 04:33:00
10:52 PM,26.1,21.9,84,30.03,1.2,East,12.7,21.9,0.00,Snow,Light Snow,100,2013-02-22 04:52:00
11:05 PM,26.6,21.2,80,29.99,1.0,East,13.8,-,0.00,Snow,Light Snow,90,2013-02-22 05:05:00
11:12 PM,24.8,23.0,93,29.98,0.5,East,18.4,-,0.00,Fog-Snow,Snow,80,2013-02-22 05:12:00
11:21 PM,24.8,23.0,93,29.97,0.5,East,15.0,24.2,0.01,Fog-Snow,Snow,80,2013-02-22 05:21:00
11:52 PM,25.0,23.0,92,29.99,0.8,East,16.1,-,0.02,Snow,Light Snow,80,2013-02-22 05:52:00